PDT6123 KPHL-KPWM

Flight info

Callsign PDT6123
Flight time 1h 1m
Altitude 35000
Route DITCH T416 JIMEE/N0435F350 WAVEY SHIPP CCC SCOGS3
Aircraft E145/M-SABDFGRW/S

Departure

Time 2026-05-05 02:37
Airport Philadelphia International Airport (KPHL)

Arrival

Time 2026-05-05 03:38
Airport Portland International Jetport (KPWM)
Time Latitude Longitude Altitude Speed Heading
2026-05-05 02:12 39.88164 -75.23680 16 ft 0 kts 281°
2026-05-05 02:27 39.88165 -75.23685 16 ft 1 kts 281°
2026-05-05 02:27 39.88162 -75.23666 16 ft 2 kts 281°
2026-05-05 02:28 39.88159 -75.23647 16 ft 0 kts 281°
2026-05-05 02:28 39.88159 -75.23636 16 ft 1 kts 245°
2026-05-05 02:28 39.88168 -75.23624 16 ft 1 kts 188°
2026-05-05 02:28 39.88177 -75.23626 16 ft 1 kts 159°
2026-05-05 02:29 39.88179 -75.23626 16 ft 0 kts 159°
2026-05-05 02:30 39.88159 -75.23605 16 ft 7 kts 142°
2026-05-05 02:31 39.88092 -75.23542 16 ft 14 kts 149°
2026-05-05 02:31 39.87986 -75.23489 17 ft 19 kts 168°
2026-05-05 02:31 39.87830 -75.23423 16 ft 26 kts 159°
2026-05-05 02:31 39.87656 -75.23338 14 ft 27 kts 159°
2026-05-05 02:32 39.87483 -75.23250 16 ft 26 kts 159°
2026-05-05 02:32 39.87312 -75.23164 17 ft 26 kts 160°
2026-05-05 02:32 39.87148 -75.23105 15 ft 18 kts 219°
2026-05-05 02:32 39.87067 -75.23231 16 ft 18 kts 237°
2026-05-05 02:33 39.87016 -75.23396 15 ft 19 kts 250°
2026-05-05 02:33 39.86997 -75.23418 15 ft 0 kts 191°
2026-05-05 02:33 39.86957 -75.23412 15 ft 11 kts 166°
2026-05-05 02:33 39.86908 -75.23401 16 ft 2 kts 213°
2026-05-05 02:34 39.86902 -75.23415 15 ft 0 kts 249°
2026-05-05 02:35 39.86901 -75.23420 15 ft 1 kts 251°
2026-05-05 02:36 39.86893 -75.23453 15 ft 23 kts 254°
2026-05-05 02:36 39.86784 -75.24000 18 ft 99 kts 256°
2026-05-05 02:36 39.86557 -75.25114 65 ft 148 kts 254°
2026-05-05 02:36 39.86301 -75.26466 593 ft 161 kts 252°
2026-05-05 02:37 39.86012 -75.28046 772 ft 206 kts 253°
2026-05-05 02:37 39.85650 -75.30031 1167 ft 238 kts 253°
2026-05-05 02:37 39.85308 -75.32054 2413 ft 230 kts 254°
2026-05-05 02:37 39.84965 -75.34019 3590 ft 224 kts 254°
2026-05-05 02:38 39.84587 -75.35977 4465 ft 232 kts 253°
2026-05-05 02:38 39.83787 -75.37775 5377 ft 238 kts 224°
2026-05-05 02:38 39.82310 -75.38664 6274 ft 245 kts 193°
2026-05-05 02:38 39.80558 -75.38359 6863 ft 267 kts 161°
2026-05-05 02:39 39.79086 -75.36825 7443 ft 286 kts 129°
2026-05-05 02:39 39.78340 -75.34400 8094 ft 296 kts 97°
2026-05-05 02:39 39.78577 -75.31776 8769 ft 296 kts 66°
2026-05-05 02:39 39.79453 -75.29411 9486 ft 297 kts 68°
2026-05-05 02:40 39.79677 -75.26711 10163 ft 303 kts 92°
2026-05-05 02:40 39.79620 -75.23975 10689 ft 311 kts 89°
2026-05-05 02:40 39.79608 -75.21121 11086 ft 323 kts 89°
2026-05-05 02:40 39.79600 -75.18150 11529 ft 333 kts 89°
2026-05-05 02:41 39.79591 -75.15095 11958 ft 342 kts 89°
2026-05-05 02:41 39.79582 -75.11989 12443 ft 348 kts 89°
2026-05-05 02:41 39.79572 -75.08823 12992 ft 352 kts 90°
2026-05-05 02:41 39.79561 -75.05673 13547 ft 355 kts 89°
2026-05-05 02:42 39.79548 -75.02459 14141 ft 357 kts 90°
2026-05-05 02:42 39.79535 -74.99227 14694 ft 359 kts 90°
2026-05-05 02:42 39.79520 -74.95967 15189 ft 363 kts 90°
2026-05-05 02:42 39.79505 -74.92679 15693 ft 366 kts 90°
2026-05-05 02:43 39.79489 -74.89353 16225 ft 369 kts 90°
2026-05-05 02:43 39.79472 -74.86061 16747 ft 371 kts 90°
2026-05-05 02:43 39.79453 -74.82680 17017 ft 382 kts 90°
2026-05-05 02:43 39.79432 -74.79189 17441 ft 385 kts 90°
2026-05-05 02:44 39.79411 -74.75778 18283 ft 376 kts 90°
2026-05-05 02:44 39.79391 -74.72385 18915 ft 375 kts 89°
2026-05-05 02:44 39.79603 -74.69018 19486 ft 374 kts 82°
2026-05-05 02:44 39.79886 -74.65653 19975 ft 375 kts 82°
2026-05-05 02:45 39.80164 -74.62315 20525 ft 375 kts 82°
2026-05-05 02:45 39.80445 -74.58924 20938 ft 378 kts 82°
2026-05-05 02:45 39.80724 -74.55533 21416 ft 380 kts 82°
2026-05-05 02:45 39.81004 -74.52120 21849 ft 383 kts 82°
2026-05-05 02:46 39.81287 -74.48661 22319 ft 384 kts 82°
2026-05-05 02:46 39.81569 -74.45209 22776 ft 385 kts 82°
2026-05-05 02:46 39.81742 -74.41770 23162 ft 389 kts 88°
2026-05-05 02:46 39.81733 -74.38219 23560 ft 392 kts 88°
2026-05-05 02:47 39.81730 -74.34666 24011 ft 393 kts 89°
2026-05-05 02:47 39.81727 -74.31131 24379 ft 396 kts 89°
2026-05-05 02:47 39.81722 -74.27544 24828 ft 397 kts 89°
2026-05-05 02:47 39.81717 -74.23937 25216 ft 399 kts 88°
2026-05-05 02:48 39.81749 -74.20356 25661 ft 398 kts 84°
2026-05-05 02:48 39.82170 -74.16851 26137 ft 394 kts 73°
2026-05-05 02:48 39.83049 -74.13481 26633 ft 390 kts 63°
2026-05-05 02:48 39.84316 -74.10442 27141 ft 384 kts 53°
2026-05-05 02:49 39.85921 -74.07671 27650 ft 381 kts 50°
2026-05-05 02:49 39.87525 -74.04862 28115 ft 381 kts 50°
2026-05-05 02:49 39.89095 -74.02058 28605 ft 380 kts 51°
2026-05-05 02:49 39.90633 -73.99292 29096 ft 379 kts 51°
2026-05-05 02:50 39.92184 -73.96494 29588 ft 377 kts 51°
2026-05-05 02:50 39.93694 -73.93763 30082 ft 375 kts 51°
2026-05-05 02:50 39.95218 -73.91006 30556 ft 374 kts 51°
2026-05-05 02:50 39.96719 -73.88287 30978 ft 373 kts 51°
2026-05-05 02:51 39.98237 -73.85533 31390 ft 372 kts 51°
2026-05-05 02:51 39.99742 -73.82802 31825 ft 370 kts 50°
2026-05-05 02:51 40.01234 -73.80093 32220 ft 370 kts 50°
2026-05-05 02:51 40.02741 -73.77354 32612 ft 369 kts 50°
2026-05-05 02:52 40.04220 -73.74662 32995 ft 368 kts 50°
2026-05-05 02:52 40.05714 -73.71942 33388 ft 367 kts 50°
2026-05-05 02:52 40.07178 -73.69273 33770 ft 366 kts 50°
2026-05-05 02:52 40.08657 -73.66576 34110 ft 366 kts 50°
2026-05-05 02:53 40.10150 -73.63850 34506 ft 364 kts 50°
2026-05-05 02:53 40.11617 -73.61170 34816 ft 365 kts 50°
2026-05-05 02:53 40.13116 -73.58431 35020 ft 369 kts 50°
2026-05-05 02:54 40.16160 -73.52859 35038 ft 389 kts 50°
2026-05-05 02:54 40.19368 -73.46973 35026 ft 407 kts 50°
2026-05-05 02:55 40.22706 -73.40837 35037 ft 424 kts 50°
2026-05-05 02:55 40.26347 -73.34658 35031 ft 435 kts 43°
2026-05-05 02:56 40.30406 -73.28654 35040 ft 441 kts 46°
2026-05-05 02:56 40.34866 -73.23293 35030 ft 435 kts 30°
2026-05-05 02:57 40.40122 -73.19405 35041 ft 435 kts 25°
2026-05-05 02:57 40.45385 -73.15514 35020 ft 436 kts 26°
2026-05-05 02:58 40.50685 -73.11575 35025 ft 437 kts 26°
2026-05-05 02:58 40.55944 -73.07660 35023 ft 438 kts 25°
2026-05-05 02:59 40.61242 -73.03708 35023 ft 439 kts 25°
2026-05-05 02:59 40.66550 -72.99740 35020 ft 438 kts 25°
2026-05-05 03:00 40.71830 -72.95787 35039 ft 436 kts 25°
2026-05-05 03:00 40.77122 -72.91818 35024 ft 435 kts 25°
2026-05-05 03:01 40.82357 -72.87884 35028 ft 434 kts 25°
2026-05-05 03:01 40.87613 -72.83927 35026 ft 432 kts 25°
2026-05-05 03:02 40.92800 -72.79861 35025 ft 434 kts 31°
2026-05-05 03:02 40.97301 -72.74520 35019 ft 438 kts 38°
2026-05-05 03:03 41.01731 -72.68994 35023 ft 436 kts 38°
2026-05-05 03:03 41.06117 -72.63525 35022 ft 436 kts 38°
2026-05-05 03:04 41.10538 -72.58002 35010 ft 435 kts 38°
2026-05-05 03:04 41.14946 -72.52485 35017 ft 435 kts 38°
2026-05-05 03:05 41.19302 -72.47021 35025 ft 435 kts 38°
2026-05-05 03:05 41.23711 -72.41482 35017 ft 435 kts 38°
2026-05-05 03:06 41.28071 -72.35994 35012 ft 435 kts 38°
2026-05-05 03:06 41.32453 -72.30466 35016 ft 434 kts 38°
2026-05-05 03:07 41.36815 -72.24953 35022 ft 434 kts 38°
2026-05-05 03:07 41.41193 -72.19409 35012 ft 434 kts 38°
2026-05-05 03:08 41.45543 -72.13890 35006 ft 434 kts 38°
2026-05-05 03:08 41.49907 -72.08343 35009 ft 433 kts 38°
2026-05-05 03:09 41.54286 -72.02765 35011 ft 433 kts 38°
2026-05-05 03:09 41.58610 -71.97247 35021 ft 433 kts 38°
2026-05-05 03:10 41.62951 -71.91696 35004 ft 434 kts 38°
2026-05-05 03:10 41.67306 -71.86115 35004 ft 433 kts 38°
2026-05-05 03:11 41.71666 -71.80519 34999 ft 433 kts 38°
2026-05-05 03:11 41.75995 -71.74950 35010 ft 433 kts 38°
2026-05-05 03:12 41.80327 -71.69366 35005 ft 433 kts 38°
2026-05-05 03:12 41.84409 -71.63412 35006 ft 441 kts 49°
2026-05-05 03:13 41.87271 -71.56110 35009 ft 449 kts 58°
2026-05-05 03:13 41.89967 -71.48560 35008 ft 448 kts 58°
2026-05-05 03:14 41.92661 -71.41054 35010 ft 448 kts 58°
2026-05-05 03:14 41.95360 -71.33516 35010 ft 447 kts 58°
2026-05-05 03:15 41.98051 -71.25983 35007 ft 447 kts 58°
2026-05-05 03:15 42.00731 -71.18463 34994 ft 447 kts 58°
2026-05-05 03:16 42.03410 -71.10925 35003 ft 447 kts 58°
2026-05-05 03:16 42.06071 -71.03416 34998 ft 446 kts 58°
2026-05-05 03:17 42.09357 -70.96593 35002 ft 430 kts 41°
2026-05-05 03:17 42.13861 -70.91440 35008 ft 417 kts 26°
2026-05-05 03:18 42.19061 -70.88438 35002 ft 404 kts
2026-05-05 03:18 42.24505 -70.86210 34992 ft 408 kts 13°
2026-05-05 03:19 42.32607 -70.82459 34398 ft 422 kts 13°
2026-05-05 03:19 42.35380 -70.81160 33867 ft 428 kts 13°
2026-05-05 03:19 42.38213 -70.79832 33340 ft 433 kts 13°
2026-05-05 03:20 42.41058 -70.78497 32803 ft 435 kts 13°
2026-05-05 03:20 42.43906 -70.77151 32269 ft 438 kts 14°
2026-05-05 03:20 42.46735 -70.75591 31744 ft 442 kts 16°
2026-05-05 03:20 42.49582 -70.74020 31208 ft 442 kts 16°
2026-05-05 03:21 42.52444 -70.72446 30674 ft 441 kts 16°
2026-05-05 03:21 42.55245 -70.70906 30146 ft 439 kts 16°
2026-05-05 03:21 42.58095 -70.69338 29505 ft 440 kts 16°
2026-05-05 03:21 42.60914 -70.67786 28841 ft 439 kts 16°
2026-05-05 03:22 42.63732 -70.66233 28175 ft 439 kts 16°
2026-05-05 03:22 42.66542 -70.64684 27511 ft 438 kts 17°
2026-05-05 03:22 42.69329 -70.63052 26854 ft 440 kts 20°
2026-05-05 03:22 42.72113 -70.61278 26188 ft 439 kts 19°
2026-05-05 03:23 42.74858 -70.59548 25532 ft 439 kts 19°
2026-05-05 03:23 42.77636 -70.57800 24870 ft 438 kts 19°
2026-05-05 03:23 42.80387 -70.56068 24215 ft 438 kts 19°
2026-05-05 03:23 42.83132 -70.54340 23563 ft 437 kts 19°
2026-05-05 03:24 42.85893 -70.52599 22898 ft 436 kts 19°
2026-05-05 03:24 42.88640 -70.50865 22248 ft 435 kts 19°
2026-05-05 03:24 42.91380 -70.49133 21604 ft 434 kts 19°
2026-05-05 03:24 42.94118 -70.47401 20956 ft 433 kts 19°
2026-05-05 03:25 42.96843 -70.45676 20337 ft 431 kts 19°
2026-05-05 03:25 42.99521 -70.43980 19705 ft 430 kts 19°
2026-05-05 03:25 43.02214 -70.42211 19050 ft 431 kts 24°
2026-05-05 03:25 43.04767 -70.40035 18397 ft 429 kts 27°
2026-05-05 03:26 43.07258 -70.37876 17726 ft 423 kts 27°
2026-05-05 03:26 43.09719 -70.35741 17088 ft 417 kts 27°
2026-05-05 03:26 43.12182 -70.33605 16412 ft 412 kts 28°
2026-05-05 03:26 43.14584 -70.31519 15729 ft 407 kts 28°
2026-05-05 03:27 43.16961 -70.29447 15055 ft 402 kts 28°
2026-05-05 03:27 43.19289 -70.27400 14386 ft 398 kts 28°
2026-05-05 03:27 43.21600 -70.25369 13710 ft 394 kts 28°
2026-05-05 03:27 43.23867 -70.23373 13044 ft 390 kts 28°
2026-05-05 03:28 43.26146 -70.21389 12371 ft 385 kts 27°
2026-05-05 03:28 43.28410 -70.19438 11693 ft 380 kts 28°
2026-05-05 03:28 43.30629 -70.17523 11018 ft 376 kts 28°
2026-05-05 03:28 43.32842 -70.15657 10348 ft 370 kts 25°
2026-05-05 03:29 43.35045 -70.13937 9685 ft 360 kts 26°
2026-05-05 03:29 43.37185 -70.12248 9024 ft 350 kts 25°
2026-05-05 03:29 43.39259 -70.10610 8366 ft 342 kts 25°
2026-05-05 03:29 43.41305 -70.08993 7706 ft 335 kts 26°
2026-05-05 03:30 43.43282 -70.07429 7059 ft 329 kts 25°
2026-05-05 03:30 43.45260 -70.05863 6447 ft 323 kts 25°
2026-05-05 03:30 43.47186 -70.04337 5843 ft 318 kts 26°
2026-05-05 03:30 43.49066 -70.02845 5163 ft 303 kts 26°
2026-05-05 03:31 43.50814 -70.01457 4545 ft 285 kts 26°
2026-05-05 03:31 43.52494 -70.00124 3925 ft 273 kts 26°
2026-05-05 03:31 43.54085 -69.98860 3413 ft 261 kts 26°
2026-05-05 03:31 43.55647 -69.97629 2997 ft 246 kts 22°
2026-05-05 03:32 43.57166 -69.97214 2998 ft 206 kts 343°
2026-05-05 03:32 43.58445 -69.97924 2992 ft 196 kts 323°
2026-05-05 03:32 43.59480 -69.99068 2984 ft 188 kts 306°
2026-05-05 03:32 43.60308 -70.00434 2978 ft 185 kts 301°
2026-05-05 03:33 43.61064 -70.01868 2976 ft 184 kts 299°
2026-05-05 03:33 43.61781 -70.03307 2976 ft 183 kts 298°
2026-05-05 03:33 43.62487 -70.04764 2974 ft 181 kts 294°
2026-05-05 03:33 43.62786 -70.06392 2984 ft 173 kts 272°
2026-05-05 03:34 43.62886 -70.08032 2972 ft 173 kts 273°
2026-05-05 03:34 43.63007 -70.09691 2941 ft 175 kts 272°
2026-05-05 03:34 43.63125 -70.11412 2727 ft 184 kts 272°
2026-05-05 03:34 43.63249 -70.13164 2488 ft 186 kts 272°
2026-05-05 03:35 43.63373 -70.14923 2221 ft 180 kts 272°
2026-05-05 03:35 43.63489 -70.16589 1987 ft 170 kts 271°
2026-05-05 03:35 43.63598 -70.18164 1763 ft 161 kts 271°
2026-05-05 03:35 43.63702 -70.19662 1556 ft 149 kts 271°
2026-05-05 03:36 43.63777 -70.20745 1415 ft 135 kts 270°
2026-05-05 03:36 43.63849 -70.21768 1269 ft 115 kts 270°
2026-05-05 03:36 43.63919 -70.22821 1092 ft 114 kts 270°
2026-05-05 03:36 43.63994 -70.23937 943 ft 120 kts 270°
2026-05-05 03:37 43.64073 -70.25109 779 ft 126 kts 271°
2026-05-05 03:37 43.64159 -70.26343 604 ft 131 kts 271°
2026-05-05 03:37 43.64252 -70.27605 441 ft 133 kts 272°
2026-05-05 03:37 43.64333 -70.28852 229 ft 126 kts 270°
2026-05-05 03:38 43.64411 -70.30030 72 ft 118 kts 272°
2026-05-05 03:38 43.64475 -70.30996 59 ft 78 kts 276°
2026-05-05 03:38 43.64509 -70.31451 59 ft 24 kts 275°
2026-05-05 03:38 43.64532 -70.31570 59 ft 10 kts 323°
2026-05-05 03:39 43.64610 -70.31567 59 ft 12 kts 45°
2026-05-05 03:39 43.64617 -70.31441 59 ft 14 kts 96°
2026-05-05 03:39 43.64608 -70.31287 59 ft 17 kts 94°
2026-05-05 03:39 43.64599 -70.31110 59 ft 19 kts 92°
2026-05-05 03:40 43.64640 -70.31044 59 ft 13 kts 288°
2026-05-05 03:40 43.64656 -70.31181 59 ft 15 kts 275°
2026-05-05 03:40 43.64686 -70.31279 59 ft 8 kts 38°
2026-05-05 03:40 43.64701 -70.31258 59 ft 0 kts 50°